{"data":{"norad_id":49450,"epoch":"2026-09-20T02:48:57.865824Z","epoch_age_seconds":74372,"freshness":"FRESH","line1":"1 49450U 21104AU  26263.11733641  .00000641  00000+0  30107-4 0  9990","line2":"2 49450  53.1623  53.8433 0001163  83.8709 276.2426 15.34392471268550","mean_motion":15.34392471,"eccentricity":0.0001163,"inclination_deg":53.1623,"raan_deg":53.8433,"arg_perigee_deg":83.8709,"mean_anomaly_deg":276.2426,"bstar":3.0107e-5,"rev_number":26855,"period_min":93.848218576145,"perigee_km":461.93002575079,"apogee_km":463.52121039575,"semimajor_km":6840.8626180733,"source":"CELESTRAK","updated_at":"2026-09-20T09:00:39.400454Z"}}